EHI
35 37 38 38 36 33 30 26 23 23 26 30 31 26 20 14 11 10 7 5 5 6 7 6 5 4 4 3 1 0 0 0 0 0 0 0 0 1 1 1 0 0 0
36 39 40 38 34 29 27 24 22 22 24 28 30 27 21 16 12 10 8 5 4 5 6 6 4 3 4 3 1 0 0 0 0 0 0 0 0 0 0 0 0 0 0
32 37 39 34 27 23 23 22 22 23 24 24 23 22 20 17 14 10 9 7 4 3 4 5 4 3 2 3 2 1 1 1 0 0 0 0 0 0 0 0 0 0 0
24 29 31 26 20 17 17 18 21 24 26 23 18 17 17 16 13 12 11 10 7 4 4 4 3 2 1 2 3 2 2 2 1 0 0 0 0 0 0 0 0 0 0
18 21 22 18 14 12 12 14 16 19 24 24 20 17 15 13 12 13 14 12 9 6 4 3 3 2 1 2 3 3 3 3 1 0 0 0 0 0 0 0 0 0 0
16 16 14 11 10 9 8 10 11 13 17 21 19 15 12 9 10 13 14 13 10 7 5 4 4 3 2 2 3 3 3 3 2 1 0 0 0 0 0 0 0 0 0
16 14 11 9 8 6 6 9 11 11 13 15 15 13 10 8 9 11 13 12 10 9 7 7 6 5 4 3 3 3 3 3 3 2 0 0 0 0 0 0 0 0 0
17 15 11 10 9 8 7 9 12 12 11 12 13 13 11 9 9 10 11 11 9 8 8 7 6 5 4 4 4 3 3 3 3 2 1 0 0 0 0 0 0 0 0
17 15 12 10 10 9 8 10 11 10 9 10 12 13 12 11 10 10 9 9 8 8 8 6 4 2 2 3 4 2 1 2 3 3 2 1 0 0 0 0 0 0 0
14 13 11 11 10 8 8 8 8 7 5 7 9 11 12 11 9 9 8 9 9 9 8 6 3 1 0 2 2 1 0 1 3 3 3 2 1 0 0 0 0 0 0
11 10 10 10 8 6 5 6 6 5 4 5 8 10 10 10 9 8 9 9 9 10 9 6 3 1 0 1 2 1 0 1 2 3 3 3 2 0 0 0 0 0 0
9 10 12 12 10 6 4 4 5 5 5 6 7 9 9 10 9 10 11 10 9 10 10 8 5 2 1 1 1 1 1 1 1 2 2 2 1 0 0 0 0 0 0
12 14 16 16 13 9 6 5 4 4 5 6 7 9 10 11 11 12 13 12 10 10 11 9 7 4 2 2 3 3 3 2 1 1 1 1 0 0 0 0 0 0 0
17 18 21 20 17 14 11 9 7 6 6 6 8 10 11 11 12 13 14 13 10 10 11 11 9 7 5 5 5 6 6 4 3 1 0 0 0 0 0 0 0 1 1
19 22 25 25 23 19 16 13 13 13 13 11 11 12 12 12 13 14 16 15 13 13 13 12 12 11 8 6 6 7 7 6 5 3 1 1 1 0 0 0 0 1 2
23 26 29 30 30 27 22 19 20 22 22 19 17 15 15 14 14 15 17 18 19 18 17 16 14 11 7 3 3 4 5 5 5 4 3 2 1 1 0 0 0 1 1
25 29 31 32 32 30 26 23 23 25 26 24 21 20 19 17 16 15 17 21 23 22 20 18 14 9 3 0 0 1 3 4 4 4 3 2 1 1 1 1 0 0 0
26 29 30 29 29 28 25 24 23 23 23 21 20 21 21 19 16 15 17 22 26 26 23 19 13 7 2 0 0 1 2 3 4 4 3 3 2 2 2 2 1 1 0
27 28 28 27 27 26 26 26 25 23 20 19 17 17 17 18 17 16 18 23 28 28 24 18 13 8 3 0 0 1 2 3 3 3 3 2 2 2 1 1 1 1 1
25 25 26 28 29 30 30 30 28 24 21 19 17 15 15 16 17 18 20 23 26 25 20 15 13 9 4 1 0 1 2 3 3 3 2 1 1 1 0 0 1 1 2
19 20 24 28 30 29 29 27 25 21 19 18 16 16 15 15 15 16 18 20 19 16 12 11 9 6 2 0 0 1 2 2 2 2 1 0 0 0 0 0 0 1 1
16 18 23 27 27 26 25 24 21 18 16 16 16 16 15 11 9 11 13 14 11 7 6 5 3 2 0 0 0 0 1 1 0 1 1 0 0 0 0 0 0 0 0
16 18 21 23 22 21 21 20 18 15 13 14 15 13 10 7 6 7 9 9 6 4 3 2 1 0 0 0 0 0 0 0 0 0 0 0 0 0 0 0 0 0 0
14 15 15 15 14 12 13 14 13 10 10 11 10 6 4 4 4 4 4 4 3 3 2 2 1 1 1 1 0 0 0 0 0 0 0 0 0 0 0 0 0 0 0
8 8 8 7 5 4 6 8 8 8 8 8 5 3 2 3 3 1 1 1 1 2 1 1 1 1 1 1 0 0 0 0 0 0 0 0 0 0 0 0 0 0 0
3 3 3 2 1 1 4 6 7 9 9 7 5 3 2 3 3 1 0 0 0 1 0 0 0 1 1 0 0 0 0 0 0 0 0 0 0 0 0 0 0 0 0
Wind_Speed
9 9 9 10 11 11 11 12 11 11 10 8 8 7 7 6 6 6 7 8 7 7 6 5 5 5 4 4 5 4 4 3 2 3 3 4 4 3 3 3 2 3 2
10 10 10 11 12 12 11 11 12 12 11 9 7 6 6 6 6 5 7 8 8 8 7 6 6 5 4 5 4 4 3 2 3 4 3 3 5 5 3 3 3 3 3
11 11 11 11 11 12 12 10 11 12 12 11 7 6 6 5 6 7 7 8 9 8 6 7 6 5 6 5 5 5 5 3 3 3 4 3 3 4 5 3 3 3 3
11 11 11 11 11 11 10 10 11 11 12 12 11 12 9 9 9 7 7 8 8 8 8 7 7 6 5 4 6 5 4 4 4 4 3 4 4 3 3 6 5 4 4
11 11 11 11 10 10 10 10 11 11 12 12 13 12 10 8 7 7 8 8 8 8 8 8 6 6 5 5 4 4 5 4 5 3 3 3 3 6 4 3 4 5 5
11 10 10 10 9 9 9 10 11 11 11 12 12 12 12 10 9 9 9 9 7 7 9 8 7 7 5 6 6 5 6 4 3 4 4 4 4 4 4 3 4 4 4
11 11 11 11 10 10 11 11 11 11 11 12 12 12 12 12 12 11 10 9 8 8 9 9 8 7 6 6 6 6 5 5 5 5 4 4 4 3 4 4 3 3 3
11 11 11 10 10 10 11 11 11 11 11 11 11 11 12 9 9 11 9 9 8 8 10 9 9 8 8 8 6 6 6 5 5 5 4 4 4 3 4 4 4 4 4
11 11 11 11 10 10 11 11 11 11 11 11 11 10 11 10 10 10 9 8 7 7 10 10 10 9 9 8 8 6 6 6 6 6 6 6 3 4 3 4 4 5 5
11 11 11 11 10 10 10 10 11 11 11 11 10 9 10 10 9 9 10 9 9 8 10 10 10 10 10 9 8 7 7 7 6 4 4 5 5 4 4 4 4 5 6
10 10 10 10 10 10 10 10 10 11 10 11 11 10 11 11 11 10 10 9 9 10 10 10 10 10 10 10 9 9 8 9 8 7 7 8 6 5 5 5 5 5 5
10 10 11 11 11 11 10 10 10 11 11 11 11 11 10 10 10 10 10 10 10 10 10 10 10 10 10 10 10 10 9 9 9 9 8 8 7 7 7 5 6 5 5
10 10 11 11 11 10 10 10 10 11 11 11 11 11 11 10 10 10 10 10 10 10 10 10 10 10 10 10 10 10 9 9 9 9 9 9 8 8 7 7 7 6 6
10 11 11 11 10 10 10 10 10 10 10 10 11 11 11 10 10 9 9 9 9 9 9 10 10 10 10 10 10 10 9 9 9 9 9 9 9 10 9 8 8 7 7
10 11 11 10 11 10 10 10 9 9 10 10 10 10 10 10 9 9 9 8 8 9 9 9 9 9 9 9 9 9 10 9 10 9 10 10 9 8 8 8 8 8 8
10 10 11 11 11 10 10 10 9 9 9 10 9 9 9 9 9 9 8 8 8 8 8 9 9 9 8 7 7 8 9 9 10 10 10 10 10 10 10 10 9 9 10
9 10 10 10 10 10 10 10 9 9 9 8 8 8 9 9 9 9 9 9 9 9 8 8 8 8 7 7 9 10 8 9 8 9 8 9 8 10 11 12 13 13 13
6 7 8 9 9 9 9 9 9 9 9 8 8 8 8 8 8 8 8 8 7 8 8 8 8 8 7 8 9 9 10 9 8 8 9 9 9 8 8 9 11 11 11
5 5 6 8 8 9 9 9 9 8 8 7 7 6 6 7 7 7 7 7 6 6 7 7 7 7 5 7 8 8 7 7 8 8 8 9 9 6 6 9 10 10 9
5 6 6 7 7 7 9 9 9 8 7 6 5 5 5 5 5 5 5 4 5 5 5 4 4 4 4 5 7 8 6 6 6 6 6 6 6 4 6 8 9 10 8
7 7 8 7 6 7 8 8 8 6 6 6 6 5 4 4 4 3 3 3 3 3 2 2 1 1 0 2 4 6 5 5 5 4 4 3 5 5 5 6 7 6 5
9 9 9 9 8 8 9 9 7 7 7 6 6 6 5 4 4 4 3 3 2 3 2 2 2 1 1 1 3 4 5 4 4 4 3 1 3 5 6 6 5 4 5
10 10 11 11 10 10 9 10 8 7 8 8 8 7 6 5 4 4 4 3 2 2 2 1 1 1 1 2 4 4 4 4 3 2 1 1 2 4 6 8 7 6 6
11 11 12 12 12 11 11 9 8 8 9 9 8 7 7 6 6 3 3 3 2 2 1 1 0 0 0 1 1 2 3 4 3 2 2 4 5 5 4 4 6 6 5
11 11 12 13 12 11 11 10 9 9 10 9 8 7 7 6 6 6 6 5 5 4 2 2 1 1 1 4 4 2 1 1 1 2 3 4 3 4 4 5 5 5 6
11 12 13 13 12 12 11 10 8 8 8 7 6 6 5 5 5 5 6 8 6 6 6 6 4 4 5 3 3 3 3 2 1 4 4 4 4 5 5 5 5 6 7
Wind_Direction
181 181 181 182 182 182 184 186 190 183 176 174 176 176 183 188 186 186 181 182 186 182 190 184 176 201 186 189 184 192 181 212 217 230 213 193 201 196 190 217 214 178 189
177 178 180 182 186 185 188 189 189 183 181 179 178 178 176 185 186 186 180 187 188 185 187 190 189 188 178 185 192 211 234 207 211 252 235 209 183 197 186 194 207 202 192
185 182 184 187 190 192 191 189 186 182 182 175 170 170 168 180 182 184 183 188 188 186 187 186 195 184 199 183 197 203 219 222 204 248 270 256 217 167 171 191 196 203 213
189 186 187 188 193 193 190 189 188 185 182 177 180 182 185 188 189 185 177 179 185 183 182 188 192 200 207 179 203 200 215 230 219 190 248 297 340 271 178 184 180 189 211
186 186 189 190 192 189 188 188 188 187 184 184 183 186 192 194 187 182 172 181 179 184 184 187 190 197 208 197 208 183 226 224 241 225 207 213 228 258 268 204 183 191 193
182 182 183 185 186 184 186 187 188 187 182 184 187 191 193 193 188 185 178 185 180 185 186 187 191 199 200 191 200 202 208 236 248 261 245 230 229 232 244 239 218 210 190
180 179 181 182 183 185 185 183 184 185 184 186 191 195 196 195 194 190 188 189 184 185 185 189 191 198 198 197 199 203 220 213 215 235 242 248 255 267 263 266 251 235 204
180 179 180 181 180 181 180 180 181 184 186 186 189 193 194 196 196 196 190 191 191 187 180 188 192 198 198 199 196 209 205 208 216 226 241 249 241 246 252 264 263 244 228
177 177 177 180 179 178 180 181 181 184 186 186 186 188 191 197 194 189 197 194 190 185 183 191 193 196 200 201 198 214 208 205 216 212 205 231 223 235 244 251 264 270 264
175 173 175 179 177 178 179 181 181 184 185 186 188 186 190 194 192 192 196 194 192 190 186 193 193 196 199 199 206 208 206 212 214 225 222 230 231 222 233 239 246 261 275
174 170 171 174 173 175 175 179 181 182 186 187 190 191 191 193 193 195 195 193 192 190 193 194 196 200 202 201 205 219 203 214 214 214 212 219 239 236 231 229 237 244 253
170 167 166 168 171 174 175 177 178 183 186 185 187 189 192 193 193 194 194 191 191 194 197 197 200 204 205 204 207 215 211 215 220 219 218 220 216 221 245 242 241 244 254
170 167 166 168 170 173 176 177 179 182 183 183 185 187 190 191 193 193 192 191 192 196 197 199 204 207 209 208 211 215 216 220 225 224 222 223 222 222 228 235 242 239 234
173 173 170 172 171 173 175 179 181 181 180 181 183 186 191 192 192 193 193 193 194 196 199 203 208 210 212 213 215 215 219 224 227 228 228 228 226 225 228 230 237 245 247
175 176 175 172 173 173 175 179 180 179 179 180 183 184 187 189 190 190 192 192 196 199 201 206 208 210 212 214 213 216 218 222 226 226 228 230 231 234 235 241 233 232 238
176 175 174 171 173 174 175 175 176 175 177 181 183 180 181 182 184 186 187 189 196 201 200 204 207 208 213 190 198 222 227 224 228 230 229 230 222 225 228 245 256 257 247
173 172 172 171 172 173 172 172 171 169 171 175 178 176 177 179 183 185 187 190 192 195 200 205 208 211 208 178 193 210 233 233 232 233 235 240 230 219 229 226 229 241 246
162 164 165 165 166 165 165 167 165 166 168 171 174 175 177 178 181 185 188 191 192 194 198 202 208 211 202 179 192 201 222 237 236 236 238 242 248 237 235 240 236 236 236
129 139 149 152 155 158 158 156 156 158 160 163 165 169 173 176 180 185 189 189 191 195 202 204 209 212 200 178 191 202 222 230 238 239 239 241 243 226 218 242 248 247 245
103 113 121 129 137 147 149 147 146 148 150 150 147 147 155 164 171 177 181 180 189 198 201 201 206 212 219 179 187 206 232 237 240 237 238 234 237 223 211 240 249 251 252
95 99 102 106 112 125 132 133 131 132 132 129 127 126 132 136 138 146 159 170 179 177 179 164 157 174 232 152 171 201 235 245 243 246 241 225 188 217 226 242 255 261 271
94 93 92 89 91 103 113 112 111 115 117 114 110 108 108 110 115 120 121 133 149 148 142 148 168 176 184 193 159 179 219 260 256 261 268 273 171 213 228 235 245 251 257
92 91 92 89 85 86 93 97 96 101 105 103 99 97 97 92 93 108 117 123 129 136 147 169 186 182 171 155 156 169 192 220 246 276 342 319 206 223 230 227 226 230 241
89 90 89 87 84 84 86 89 93 96 96 96 95 94 92 90 79 62 69 76 78 98 131 148 162 248 212 82 118 179 193 197 215 241 212 209 220 234 253 240 224 234 249
83 84 85 84 81 80 80 81 85 90 92 91 91 90 86 82 79 70 47 42 49 35 17 27 35 357 22 44 23 346 330 323 3 275 251 245 237 237 240 247 248 248 245
86 84 82 81 79 76 75 75 79 84 89 90 85 85 86 86 88 94 88 59 59 69 61 42 25 53 61 70 52 35 18 3 304 268 259 260 259 261 261 260 257 254 257